Location: Mascot Post Office (historical)
(40.2645°N, 99.5462°W)
Time: 00:18:23
(UTC+00:00)

NOSS 3-4 (C) - Pass Details

Date: 23 October 2020
Orbit: 884 x 1328 km, 63.4° (Epoch: 28 November)

Event Time Altitude Azimuth Distance (km) Brightness Sun altitude
Rises 04:26:56 0° 323° (NW) 3,877 7.2 -51.6°
Reaches altitude 10° 04:29:29 10° 321° (NW) 2,980 6.5 -52.0°
Enters shadow 04:30:13 14° 320° (NW) 2,732 6.2 -52.1°
